FW2619 Weather Reports


time (UTC)temp
F
wind
direction
speed
knots
gust
knots
rain 1hr
in
rain 24hr
in
rain mn
in
humidity
%
barometer
mb
20260906221407 94 64 0.0 0.0 0.00 0.00 0.00 31 1004.2
20260906220905 94 68 0.0 0.0 0.00 0.00 0.00 30 1004.2
20260906220405 94 94 0.0 0.9 0.00 0.00 0.00 31 1004.3
20260906214905 94 57 0.0 0.0 0.00 0.00 0.00 31 1004.5
20260906213907 93 74 0.0 0.0 0.00 0.00 0.00 31 1004.6
20260906213406 94 76 0.0 4.3 0.00 0.00 0.00 31 1004.7
20260906211907 92 5 0.0 0.9 0.00 0.00 0.00 33 1004.9
20260906211405 91 57 0.0 0.0 0.00 0.00 0.00 33 1004.9
20260906210908 91 63 0.0 0.0 0.00 0.00 0.00 32 1005.0
20260906210406 91 57 0.0 1.7 0.00 0.00 0.00 32 1005.1
20260906204906 92 71 0.0 1.7 0.00 0.00 0.00 32 1005.4
20260906204405 91 73 0.0 0.0 0.00 0.00 0.00 33 1005.5
20260906203407 91 31 0.0 6.1 0.00 0.00 0.00 33 1005.6
20260906201906 90 350 1.7 7.0 0.00 0.00 0.00 33 1005.8
20260906201409 90 64 0.0 0.0 0.00 0.00 0.00 33 1005.9
20260906200908 91 70 0.0 0.9 0.00 0.00 0.00 32 1006.0
20260906200407 90 71 0.0 0.9 0.00 0.00 0.00 34 1006.1
20260906194404 89 17 0.0 0.0 0.00 0.00 0.00 33 1006.4
20260906193406 89 36 0.0 0.0 0.00 0.00 0.00 33 1006.7
20260906191905 88 64 0.0 0.0 0.00 0.00 0.00 36 1007.0
20260906190906 87 42 0.0 0.9 0.00 0.00 0.00 38 1007.1
20260906190405 87 355 0.0 4.3 0.00 0.00 0.00 39 1007.1
20260906184904 86 357 0.0 4.3 0.00 0.00 0.00 40 1007.6
20260906183404 86 355 0.0 0.0 0.00 0.00 0.00 39 1007.8
20260906181907 85 329 0.0 0.0 0.00 0.00 0.00 41 1008.2
20260906181404 84 329 0.0 0.0 0.00 0.00 0.00 40 1008.4
20260906180406 83 329 0.0 0.0 0.00 0.00 0.00 43 1008.5
20260906174906 84 329 0.0 0.0 0.00 0.00 0.00 39 1008.8
20260906174409 83 329 0.0 0.0 0.00 0.00 0.00 41 1009.0
20260906173907 83 329 0.0 0.0 0.00 0.00 0.00 40 1009.1
20260906171408 80 329 0.0 0.0 0.00 0.00 0.00 44 1009.7
20260906161904 75 329 0.0 0.0 0.00 0.00 0.00 53 1010.2
20260906160907 73 329 0.0 0.0 0.00 0.00 0.00 57 1010.2
20260906160406 73 329 0.0 0.0 0.00 0.00 0.00 57 1010.2
20260906154907 72 329 0.0 0.0 0.00 0.00 0.00 59 1010.3
20260906154405 71 329 0.0 0.0 0.00 0.00 0.00 60 1010.2
20260906153909 71 329 0.0 0.0 0.00 0.00 0.00 60 1010.3
20260906153408 71 329 0.0 0.0 0.00 0.00 0.00 59 1010.3
20260906151905 70 329 0.0 0.0 0.00 0.00 0.00 58 1010.5
20260906151408 69 329 0.0 0.0 0.00 0.00 0.00 60 1010.5
20260906150406 68 329 0.0 0.0 0.00 0.00 0.00 61 1010.6
20260906144405 66 329 0.0 0.0 0.00 0.00 0.00 67 1010.5
20260906143908 66 329 0.0 0.0 0.00 0.00 0.00 69 1010.6
20260906143408 65 329 0.0 0.0 0.00 0.00 0.00 69 1010.5
20260906141406 63 329 0.0 0.0 0.00 0.00 0.00 75 1010.6
20260906140905 62 329 0.0 0.0 0.00 0.00 0.00 76 1010.7
20260906134905 60 329 0.0 0.0 0.00 0.00 0.00 83 1010.7
20260906134408 59 329 0.0 0.0 0.00 0.00 0.00 84 1010.8
20260906133907 59 329 0.0 0.0 0.00 0.00 0.00 84 1010.8
20260906133406 58 329 0.0 0.0 0.00 0.00 0.00 84 1010.8
20260906131908 58 329 0.0 0.0 0.00 0.00 0.00 84 1010.7
20260906130905 58 329 0.0 0.0 0.00 0.00 0.00 83 1010.5
20260906130404 58 325 0.0 0.0 0.00 0.00 0.00 83 1010.4
20260906124904 58 296 0.0 0.0 0.00 0.00 0.00 82 1010.2
20260906124407 58 296 0.0 0.0 0.00 0.00 0.00 82 1010.1
20260906123906 58 296 0.0 0.0 0.00 0.00 0.00 82 1010.1
20260906123405 58 296 0.0 0.0 0.00 0.00 0.00 81 1010.1
20260906121906 59 296 0.0 0.0 0.00 0.00 0.00 81 1010.2
20260906121404 59 296 0.0 0.0 0.00 0.00 0.00 81 1010.2
20260906120904 59 296 0.0 0.0 0.00 0.00 0.00 80 1010.1
20260906120408 59 296 0.0 0.0 0.00 0.00 0.00 80 1010.1
20260906114904 59 296 0.0 0.0 0.00 0.00 0.00 80 1010.3
20260906114406 59 296 0.0 0.0 0.00 0.00 0.00 79 1010.2
20260906113906 59 296 0.0 0.0 0.00 0.00 0.00 79 1010.3
20260906113404 59 296 0.0 0.0 0.00 0.00 0.00 78 1010.3
20260906111906 59 296 0.0 0.0 0.00 0.00 0.00 78 1010.0
20260906111404 59 296 0.0 0.0 0.00 0.00 0.00 78 1010.0
20260906110908 60 296 0.0 0.0 0.00 0.00 0.00 78 1010.0
20260906110407 60 296 0.0 0.0 0.00 0.00 0.00 77 1009.8
20260906104908 60 296 0.0 0.0 0.00 0.00 0.00 75 1009.6
20260906104407 61 296 0.0 0.0 0.00 0.00 0.00 75 1009.6
20260906103905 61 296 0.0 0.0 0.00 0.00 0.00 75 1009.6
20260906103404 61 296 0.0 0.0 0.00 0.00 0.00 75 1009.6
20260906101905 61 296 0.0 0.0 0.00 0.00 0.00 73 1009.5
20260906100907 62 296 0.0 0.0 0.00 0.00 0.00 73 1009.3
20260906100407 62 296 0.0 0.0 0.00 0.00 0.00 72 1009.3
20260906094907 62 296 0.0 0.0 0.00 0.00 0.00 71 1009.4
20260906094406 62 296 0.0 0.0 0.00 0.00 0.00 71 1009.4
20260906093904 63 296 0.0 0.0 0.00 0.00 0.00 71 1009.4
20260906093403 63 296 0.0 0.0 0.00 0.00 0.00 71 1009.5
20260906091904 63 296 0.0 0.0 0.00 0.00 0.00 71 1009.3
20260906091407 63 296 0.0 0.0 0.00 0.00 0.00 71 1009.3
20260906090404 63 296 0.0 0.0 0.00 0.00 0.00 71 1009.2
20260906084904 63 296 0.0 0.0 0.00 0.00 0.00 71 1009.2
20260906084407 63 296 0.0 0.0 0.00 0.00 0.00 71 1009.1
20260906083906 63 296 0.0 0.0 0.00 0.00 0.00 70 1009.1
20260906083405 63 296 0.0 0.0 0.00 0.00 0.00 70 1008.9
20260906081907 64 296 0.0 0.0 0.00 0.00 0.00 68 1009.1
20260906080909 64 296 0.0 0.0 0.00 0.00 0.00 68 1009.2
20260906080409 65 296 0.0 0.0 0.00 0.00 0.00 67 1009.2
20260906074905 65 296 0.0 0.0 0.00 0.00 0.00 65 1009.0
20260906074408 66 296 0.0 0.0 0.00 0.00 0.00 63 1009.0
20260906073907 66 296 0.0 0.0 0.00 0.00 0.00 63 1008.9
20260906073406 67 296 0.0 0.0 0.00 0.00 0.00 62 1008.9
20260906071905 68 296 0.0 0.0 0.00 0.00 0.00 59 1008.9
20260906071404 68 296 0.0 0.0 0.00 0.00 0.00 58 1008.9
20260906070908 68 296 0.0 0.0 0.00 0.00 0.00 58 1008.9
20260906070405 69 296 0.0 0.0 0.00 0.00 0.00 58 1008.8
20260906064907 69 296 0.0 0.0 0.00 0.00 0.00 56 1008.8
20260906064405 69 296 0.0 0.9 0.00 0.00 0.00 56 1008.9
20260906063909 69 296 0.0 0.9 0.00 0.00 0.00 56 1008.9
20260906063408 69 296 0.0 0.0 0.00 0.00 0.00 55 1008.9
20260906061905 71 296 0.0 0.0 0.00 0.00 0.00 54 1009.1
20260906061407 71 296 0.0 0.0 0.00 0.00 0.00 53 1009.2
20260906060906 71 296 0.0 0.0 0.00 0.00 0.00 54 1009.4
20260906060408 71 296 0.0 0.0 0.00 0.00 0.00 53 1009.5
20260906054904 72 296 0.0 0.0 0.00 0.00 0.00 50 1009.7
20260906054408 73 296 0.0 0.0 0.00 0.00 0.00 50 1009.6
20260906053906 73 296 0.0 0.0 0.00 0.00 0.00 48 1009.4
20260906053405 74 296 0.0 0.0 0.00 0.00 0.00 47 1009.5
20260906051906 75 296 0.0 0.0 0.00 0.00 0.00 44 1009.5
20260906051405 75 296 0.0 0.0 0.00 0.00 0.00 44 1009.3
20260906050908 75 296 0.0 0.0 0.00 0.00 0.00 43 1009.3
20260906050407 75 296 0.0 0.9 0.00 0.00 0.00 43 1009.4
20260906044908 75 263 0.0 0.0 0.00 0.00 0.00 42 1009.5
20260906043905 74 261 0.0 0.0 0.00 0.00 0.00 44 1009.8
20260906043404 74 256 0.0 0.0 0.00 0.00 0.00 44 1009.8
20260906041904 74 169 0.0 0.0 0.00 0.00 0.00 46 1009.3
20260906041407 73 169 0.0 0.0 0.00 0.00 0.00 46 1009.1
20260906040906 73 169 0.0 0.0 0.00 0.00 0.00 47 1009.1
20260906034404 71 5 0.0 0.0 0.00 0.00 0.00 52 1008.0
20260906033904 71 5 0.0 0.0 0.00 0.00 0.00 53 1007.9
20260906033407 71 5 0.0 0.0 0.00 0.00 0.00 51 1007.8
20260906031908 72 5 0.0 0.0 0.00 0.00 0.00 50 1007.8
20260906031406 72 5 0.0 0.0 0.00 0.00 0.00 50 1007.7
20260906030905 73 5 0.0 0.0 0.00 0.00 0.00 49 1007.6
20260906030404 73 5 0.0 0.0 0.00 0.00 0.00 49 1007.4
20260906024905 74 5 0.0 0.0 0.00 0.00 0.00 49 1007.0
20260906024404 75 5 0.0 0.0 0.00 0.00 0.00 47 1007.0
20260906023907 75 5 0.0 0.0 0.00 0.00 0.00 46 1007.0
20260906023406 76 5 0.0 0.0 0.00 0.00 0.00 44 1007.0
20260906021907 77 5 0.0 0.0 0.00 0.00 0.00 40 1007.1
20260906021406 77 5 0.0 0.0 0.00 0.00 0.00 39 1007.1
20260906014406 79 5 0.0 0.0 0.00 0.00 0.00 36 1006.5
20260906013905 80 5 0.0 0.0 0.00 0.00 0.00 37 1006.3
20260906013404 80 5 0.0 0.0 0.00 0.00 0.00 38 1006.1
20260906011905 83 332 0.0 0.0 0.00 0.00 0.00 37 1005.9
20260906011404 84 332 0.0 0.0 0.00 0.00 0.00 35 1005.8
20260906010907 85 332 0.0 0.0 0.00 0.00 0.00 33 1005.9
20260906010407 86 332 0.0 0.0 0.00 0.00 0.00 32 1005.9
20260906004908 88 332 0.0 0.0 0.00 0.00 0.00 30 1006.1
20260906004407 88 332 0.0 0.0 0.00 0.00 0.00 28 1006.1
20260906003405 90 332 0.0 0.0 0.00 0.00 0.00 27 1006.1
20260906001906 91 332 0.0 0.0 0.00 0.00 0.00 25 1006.0
20260906001404 91 332 0.0 0.0 0.00 0.00 0.00 24 1006.0
20260906000904 92 332 0.0 0.0 0.00 0.00 0.00 23 1005.9
20260906000407 92 333 0.0 0.0 0.00 0.00 0.00 23 1005.9
20260905234904 92 333 0.0 0.0 0.00 0.00 0.00 23 1005.8
20260905234405 91 345 0.0 0.0 0.00 0.00 0.00 22 1005.8
20260905233905 92 5 0.0 0.0 0.00 0.00 0.00 22 1005.8
20260905233404 92 13 0.0 0.0 0.00 0.00 0.00 22 1005.9
20260905231904 92 14 0.0 0.9 0.00 0.00 0.00 23 1005.8
20260905231407 92 14 0.0 0.0 0.00 0.00 0.00 22 1005.8
20260905230906 92 14 0.0 0.0 0.00 0.00 0.00 23 1005.8
20260905224906 93 282 0.0 0.0 0.00 0.00 0.00 22 1005.8
20260905224404 92 282 0.0 0.0 0.00 0.00 0.00 21 1005.8
20260905223904 92 281 0.0 0.0 0.00 0.00 0.00 22 1005.8
20260905223408 92 278 0.0 1.7 0.00 0.00 0.00 23 1005.9